Weather Roundup
Issued by NWS

Home | Current Version | Previous Version | Text Only | Print | Product List | Glossary On
Versions: 1 2 3 4 5 6 7 8 9 10 11 12 13 14 15 16 17 18 19 20 21 22 23 24 25 26 27 28 29 30 31 32 33 34 35 36 37 38 39 40 41 42 43 44 45 46 47 48 49 50
000
NZUS93 KARX 180859
HRRWXR

CURRENT HOURLY OBSERVATIONS ACROSS
MUCH OF THE UPPER MISSISSIPPI VALLEY
NATIONAL WEATHER SERVICE LA CROSSE WI
400 AM CDT SAT APR 18 2015


...SOUTHEAST MINNESOTA...


CITY           SKY/WX    TMP DP  RH WIND       PRES   REMARKS
ROCHESTER      PTCLDY    50  36  58 CALM      30.06F
ROCHESTER/MAYO FAIR      53  41  65 CALM      30.05S
WINONA         CLEAR     48  45  87 CALM      30.05S
AUSTIN         PTCLDY    54  37  54 CALM      30.05R
ALBERT LEA     PTCLDY    52  37  58 NE5       30.05S
DODGE CENTER   PTCLDY    50  34  53 CALM      30.05S
PRESTON        PTCLDY    53  38  57 CALM      30.06S
OWATONNA       PTCLDY    45  32  61 CALM      30.05S
FARIBAULT      PTCLDY    43  37  81 CALM      30.06R
$$

...ELSEWHERE IN MINNESOTA...


CITY           SKY/WX    TMP DP  RH WIND       PRES   REMARKS
MINNEAPOLIS    PTCLDY    51  32  48 N7        30.05F
INTNL FALLS    CLEAR     28  24  85 NE3       30.21R
DULUTH         CLEAR     43  29  57 E14       30.16R
RED WING       CLEAR     39  34  81 N3        30.05R
REDWOOD FALLS  PTCLDY    45  27  49 CALM      30.05R
MANKATO        PTCLDY    57  28  33 N5        30.05R
WORTHINGTON    PTCLDY    48  25  40 NE5       30.05S
FAIRMONT       PTCLDY    54  25  32 N7        30.04S
$$

...SOUTHWEST WISCONSIN...


CITY           SKY/WX    TMP DP  RH WIND       PRES   REMARKS
LA CROSSE      CLEAR     51  45  79 SE5       30.04R
PRAIRIE DU CHI PTCLDY    50  44  78 CALM      30.04S
BOSCOBEL       CLEAR     46  43  89 CALM      30.04S
LONE ROCK      NOT AVBL
PLATTEVILLE    PTCLDY    54  44  69 N5        30.03S
FORT MC COY    CLEAR     38  37  97 CALM      30.06R
VIROQUA        FAIR      59  35  40 NE6       30.05S
WIS DELLS      CLEAR     47  41  78 CALM      30.04R
$$

...ELSEWHERE IN WISCONSIN...


CITY           SKY/WX    TMP DP  RH WIND       PRES   REMARKS
MILWAUKEE      PTCLDY    55  43  63 NW6       30.02R
MADISON        CLEAR     50  44  80 CALM      30.03R
GREEN BAY      CLEAR     45  41  86 N10G16    30.05R
EAU CLAIRE     NOT AVBL
BLACK RVR FLS  FAIR      34  34 100 CALM      30.04R
MEDFORD        CLEAR     47  30  51 NE9       30.08R
WAUSAU         CLEAR     52  29  41 N5        30.07R
WIS RAPIDS     CLEAR     43  33  68 NE3       30.05R
MARSHFIELD     CLEAR     55  28  35 NE14      30.05R
RICE LAKE      CLEAR     50  28  43 NE5       30.10R
$$

...NORTHEAST IOWA...


CITY           SKY/WX    TMP DP  RH WIND       PRES   REMARKS
DECORAH        MOCLDY    55  45  67 CALM      30.04S
MASON CITY     CLOUDY    51  44  77 NE6       30.05S
CHARLES CITY   MOCLDY    59  43  55 NE9       30.04S
OELWEIN        MOCLDY    55  46  71 NE9       30.03S
$$

...ELSEWHERE IN IOWA...


CITY           SKY/WX    TMP DP  RH WIND       PRES   REMARKS
DES MOINES     CLOUDY    65  55  70 E6        29.99S
IOWA CITY      MOCLDY    51  49  92 S6        30.01S
FORT DODGE     PTCLDY    57  45  62 NE10      30.01F
$$

...NORTHERN ILLINOIS...


CITY           SKY/WX    TMP DP  RH WIND       PRES   REMARKS
CHICAGO-OHARE  MOCLDY    60  47  61 W3        30.00S
CHICAGO-MIDWAY PTCLDY    63  49  60 SW7       30.01S
MOLINE         CLEAR     51  45  79 CALM      30.00R
ROCKFORD       PTCLDY    53  48  83 CALM      30.04S
PEORIA         CLEAR     60  52  74 S3        30.02S
$$

NOTE: "FAIR" INDICATES FEW OR NO CLOUDS BELOW 12,000 FEET WITH NO
SIGNIFICANT WEATHER AND/OR OBSTRUCTIONS TO VISIBILITY. WIND
SPEEDS ARE IN MILES-PER-HOUR.



USA.gov is the U.S. government's official web portal to all federal, state and local government web resources and services.